Location: Santaluz Observatory
(32.9930°N, 117.1510°W)
Time: 17:05:38
(UTC-07:00)

Daily predictions for brighter satellites

Satellite Brightness Start Highest point End
(mag) Time Altitude Azimuth Time Altitude Azimuth Time Altitude Azimuth
Chandra Rocket (1) 4.3 19:59:14 10° W 20:05:04 69° S 20:30:19 10° E
Cosmos 2237 Rocket 3.9 20:10:05 10° SW 20:15:19 40° WNW 20:20:37 10° N
Cosmos 1975 4.0 20:12:40 10° NNW 20:16:30 46° W 20:20:19 10° SSW
IUS-1 SRM-2 3.9 20:16:43 10° WSW 20:19:04 14° SSW 20:20:34 10° S
Cosmos 1726 Rocket 3.9 20:18:38 10° N 20:22:55 47° E 20:27:09 10° SSE
OTV 4 2.8 20:24:23 10° WSW 20:26:12 15° SSW 20:28:01 10° S
BREEZE-M R/B 4.4 20:25:11 10° W 20:27:59 28° SW 20:32:34 10° SSE
Cosmos 2278 Rocket 2.6 20:22:21 10° NNW 20:27:59 67° WSW 20:33:36 10° S
ATLAS 3B R/B 4.0 20:28:55 10° SSE 20:34:16 21° ESE 20:39:36 10° ENE
CZ-2D R/B 3.4 20:31:06 10° S 20:34:58 79° WSW 20:38:54 10° NNW
Abrixas rocket 3.8 20:33:21 10° NNW 20:36:20 27° NNE 20:39:14 10° E
Cosmos 1666 3.7 20:34:49 10° NNE 20:38:15 29° E 20:41:00 14° SE
Cosmos 1602 Rocket 4.4 20:34:41 10° SSE 20:38:39 32° E 20:42:36 10° NNE
Cosmos 2058 Rocket 3.2 20:35:14 10° N 20:39:32 55° E 20:43:47 10° SSE
Cosmos 1500 4.3 20:35:58 10° NNW 20:39:42 46° W 20:43:25 10° SSW
ERS-1 Rocket 3.3 20:37:13 10° SSE 20:42:02 50° ENE 20:46:52 10° N
APEX 4.5 20:39:37 10° N 20:43:45 40° ENE 20:47:58 15° SE
SL-16 R/B 3.1 20:38:23 10° SW 20:43:53 54° WNW 20:49:26 10° N
YAOGAN 11 4.0 20:40:16 10° SSE 20:44:38 78° ENE 20:48:57 10° N
ISS -3.4 20:41:51 10° SW 20:45:03 60° SE 20:48:17 10° NE
Atlas Centaur 2 3.0 20:38:44 10° WSW 20:45:42 59° SSE 20:53:53 10° E
Envisat 4.0 20:45:44 15° ESE 20:49:10 30° ENE 20:53:32 10° N
Cosmos 2285 Rocket 4.0 20:42:57 10° NNW 20:49:16 69° ENE 20:55:10 12° SSE
Meteor 1-15 Rocket 4.4 20:45:17 10° N 20:50:46 54° E 20:55:45 13° SSE
Cosmos 1743 3.4 20:50:59 10° NNW 20:54:44 54° W 20:58:27 10° S
Cosmos 1939 Rocket 3.6 20:52:34 18° SE 20:55:13 38° ENE 20:59:04 10° N
deb Chang Zheng 4 3.5 20:51:18 10° NNE 20:55:43 83° ESE 21:00:03 10° SSW
Cosmos 1110 Rocket 4.2 20:50:36 10° NNW 20:55:52 72° WSW 21:01:04 10° S
Cosmos 1464 Rocket 3.9 20:51:42 10° N 20:57:50 74° E 21:04:00 10° S
CZ-4 DEB 4.2 20:57:46 10° SSW 21:00:45 36° W 21:03:46 10° NNW
ATLAS CENTAUR Rocket 3.9 20:56:16 10° WSW 21:02:00 63° SSE 21:38:16 10° E
ATLAS CENTAUR Rocket 3.9 20:56:16 10° WSW 21:02:01 63° SSE 21:38:16 10° E
ATLAS CENTAUR Rocket 3.9 20:56:16 10° WSW 21:02:01 63° SSE 21:38:17 10° E
H-2A R/B 2.0 20:59:32 17° SSE 21:02:43 68° ENE 21:07:02 10° N
CZ-4 SHROUD 4.4 21:04:33 25° E 21:05:14 27° ENE 21:07:59 10° NNE
SPOT 5 3.5 21:04:13 22° ESE 21:06:17 34° ENE 21:10:12 10° N
ALOS 3.4 21:02:39 10° S 21:07:04 42° W 21:11:31 10° NNW
COSMOS 2455 2.8 21:05:00 10° SSW 21:10:55 68° ESE 21:16:54 10° NNE
Cosmos 1626 Rocket 3.5 21:06:42 10° S 21:11:09 79° E 21:15:34 10° N
Cosmos 1603 3.7 21:07:20 10° SSW 21:12:57 84° WNW 21:18:35 10° NNE
YAOGAN 6 4.3 21:14:15 18° ENE 21:14:36 18° ENE 21:17:13 10° NNE
Cosmos 2034 Rocket 4.0 21:10:49 10° N 21:17:12 79° E 21:22:13 17° S
Meteor 2-9 Rocket 4.5 21:16:06 10° NNW 21:21:49 73° W 21:26:56 14° S
Cosmos 2228 3.3 21:18:05 10° NNW 21:22:29 68° W 21:25:40 18° S
PSLV R/B 3.1 21:27:44 58° E 21:27:56 60° ENE 21:30:59 10° N
Cosmos 1943 3.2 21:32:15 18° S 21:36:21 59° ESE 21:41:56 10° NNE
CZ-2C R/B 3.5 21:36:16 10° WSW 21:37:11 12° W 21:38:07 10° WNW
Lacrosse 4 Rocket 2.5 21:39:17 28° ENE 21:39:17 28° ENE 21:41:43 10° NE
H-2A R/B 3.9 21:38:18 14° ENE 21:38:51 15° ENE 21:41:31 10° NNE
MetOp-A 4.2 21:37:01 36° SE 21:39:08 63° ENE 21:44:26 10° N
Delta 168 4.1 21:40:40 10° WSW 21:42:58 26° SSW 21:42:58 26° SSW
Cosmos 1943 Rocket 4.3 21:42:58 10° NE 21:44:52 12° NE 21:46:20 11° ENE
Cosmos 1190 Rocket 4.1 21:43:21 38° SSE 21:45:06 57° ESE 21:50:19 10° NNE
SeaSat 1 2.4 21:44:08 44° SE 21:45:40 71° ENE 21:50:36 10° NNW
Geosat 4.4 21:42:07 10° NE 21:46:45 41° ESE 21:46:45 41° ESE
SPOT 1/Viking Rocket 3.8 21:45:58 41° ESE 21:47:14 51° ENE 21:52:13 10° N
OAO 3 Copernicus 4.3 21:45:05 10° W 21:50:04 63° SSW 21:50:59 52° SSE
UNK 4.5 21:47:37 10° N 21:53:05 70° WNW 21:58:28 12° SSW
CZ-4B R/B 3.6 21:53:56 10° N 21:59:02 74° WNW 22:02:04 25° SSW
Cosmos 676 Rocket 4.3 22:02:01 46° E 22:02:01 46° E 22:06:51 10° NNE
Cosmos 1461 3.6 21:58:22 10° NW 22:02:19 41° WSW 22:02:44 40° SW
Cosmos 1758 Rocket 4.0 22:04:11 47° ENE 22:04:11 47° ENE 22:07:47 10° NNE
Abrixas rocket 4.3 22:10:26 10° WNW 22:12:14 23° W 22:12:14 23° W
ARGOS 3.0 22:14:47 65° SE 22:15:32 78° ENE 22:20:59 10° N
Cosmos 1825 Rocket 4.3 22:20:09 43° WSW 22:20:59 50° W 22:25:20 10° N
CZ-4C R/B 4.0 22:22:04 52° NNE 22:22:04 52° NNE 22:25:24 10° N
ISS 0.1 22:20:03 10° WNW 22:21:46 13° NNW 22:23:29 10° N
ATLAS 3B R/B 3.2 22:16:41 10° SW 22:24:22 71° WNW 22:31:58 10° NNE
Cosmos 2369 Rocket 2.1 22:19:14 10° NNW 22:24:54 73° ENE 22:25:15 70° E
NOAA 11 4.0 22:31:39 74° SSW 22:32:04 80° WSW 22:37:30 10° NNW
Cosmos 407 Rocket 3.8 22:31:34 47° SW 22:32:53 62° WNW 22:38:05 10° N
Atlas Centaur 2 2.9 22:27:35 10° W 22:35:28 75° S 22:38:00 50° ESE
SL-08 RB Rocket 4.0 22:37:33 63° NW 22:37:33 63° NW 22:41:34 10° NNW
USA 234 3.2 22:35:51 60° ESE 22:37:09 79° NE 22:43:43 10° NW
Cosmos 1953 4.3 22:40:44 10° N 22:42:23 22° NNE 22:42:23 22° NNE
Landsat 7 4.1 22:45:23 63° NNW 22:45:23 63° NNW 22:49:24 10° NNW
Milstar 3 Cent rocket 4.5 22:44:44 10° WSW 22:45:14 11° SW 22:45:14 11° SW
COSMOS 2406 3.8 22:51:29 45° NE 22:51:29 45° NE 22:55:34 10° NNE
Cosmos 2263 4.2 22:45:38 10° NNW 22:50:53 78° N 22:50:53 78° N
Cosmos 1954 Rocket 4.2 22:52:49 70° NW 22:52:49 70° NW 22:57:43 10° NNE
Nadezhda 4 Rocket 4.1 22:53:12 60° ENE 22:53:12 60° ENE 22:58:57 10° NNE
Terra 2.6 23:01:40 51° NNW 23:01:40 51° NNW 23:05:13 10° NNW
USA 238 DEB 3.6 23:01:03 70° SSW 23:01:59 89° NW 23:09:05 10° NNE
USA 238 3.6 23:01:14 72° SSW 23:02:05 90° ENE 23:09:11 10° NNE
CZ-4C R/B 4.4 23:12:00 13° ENE 23:12:00 13° ENE 23:12:47 10° NE
Lacrosse 4 Rocket 4.1 23:15:32 13° WNW 23:16:48 15° NW 23:19:07 10° NNW
H-2A R/B 3.0 23:18:56 42° WNW 23:18:56 42° WNW 23:22:38 10° NNW
Cosmos 1943 Rocket 2.8 23:23:40 10° NNW 23:27:52 53° NNW 23:27:52 53° NNW
Cosmos 1607 4.3 23:40:55 60° NW 23:40:55 60° NW 23:46:37 10° NNE
Meteor 2-5 Rocket 4.5 23:48:01 51° N 23:48:01 51° N 23:52:17 10° N
